Flight Track Log - Related Links

Times and Time Zones

All times are in EDT time to prevent confusion due to time zone crossing. See the N546QS flight status page for this flight to view local times or setup timezone preferences in your user account.

Time Position Orientation Groundspeed Altitude Reporting Facility
EDT Latitude Longitude Course Direction KTS MPH feet Rate Location/Type
Sat 07:33:25 PM 42.7631 -73.8061 341° North 159 183 1,500  Level Boston Center
Sat 07:34:08 PM 42.7942 -73.8208 341° North 189 217 4,100 3,623 Climbing Boston Center
Sat 07:35:11 PM 42.8497 -73.8844 320° Northwest 265 305 7,900 3,415 Climbing Boston Center
Sat 07:36:11 PM 42.9031 -73.9594 314° West 275 316 11,100 3,300 Climbing Boston Center
Sat 07:37:11 PM 42.8703 -74.0550 245° Southwest 273 314 14,500 3,400 Climbing Boston Center
Sat 07:38:11 PM 42.7600 -74.0464 177° South 240 276 17,900 3,250 Climbing Boston Center
Sat 07:39:11 PM 42.6478 -74.0350 176° South 338 389 21,000 3,300 Climbing Boston Center
Sat 07:40:11 PM 42.5331 -74.0375 181° South 363 418 24,500 3,200 Climbing Boston Center
Sat 07:41:11 PM 42.4142 -74.0375 180° South 402 463 27,400 2,700 Climbing Boston Center
Sat 07:42:11 PM 42.3161 -74.0406 181° South 426 490 29,900 3,350 Climbing Boston Center
Sat 07:43:11 PM 42.2086 -74.1275 211° Southwest 391 450 34,100 3,500 Climbing Boston Center
Sat 07:44:11 PM 42.1017 -74.1639 194° South 391 450 36,900 2,050 Climbing Boston Center
Sat 07:45:11 PM 41.9869 -74.1831 187° South 396 456 38,200 1,950 Climbing Boston Center
Sat 07:46:11 PM 41.8742 -74.1994 186° South 407 468 40,800 1,365 Climbing Boston Center
Sat 07:48:42 PM 41.6147 -74.3031 197° South 395 455 43,000 626 Climbing New York Center
Sat 07:49:42 PM 41.5336 -74.3736 213° Southwest 395 455 43,000  Level New York Center
Sat 07:50:41 PM 41.4497 -74.4606 218° Southwest 389 448 43,000  Level New York Center
Sat 07:51:42 PM 41.3636 -74.5469 217° Southwest 401 461 43,000  Level New York Center
Sat 07:52:42 PM 41.2692 -74.6356 215° Southwest 407 468 43,000  Level New York Center
Sat 07:53:43 PM 41.1831 -74.7189 216° Southwest 400 460 43,000  Level New York Center
Sat 07:54:41 PM 41.1028 -74.8133 222° Southwest 394 453 43,000  Level New York Center
Sat 07:55:41 PM 41.0225 -74.9047 221° Southwest 389 448 43,000  Level New York Center
Sat 07:56:41 PM 40.9422 -74.9958 221° Southwest 383 441 43,000  Level New York Center
Sat 07:57:42 PM 40.8619 -75.0869 221° Southwest 383 441 43,000  Level New York Center
Sat 07:58:42 PM 40.7836 -75.1781 221° Southwest 383 441 43,000  Level New York Center
Sat 07:59:41 PM 40.7031 -75.2686 220° Southwest 383 441 43,000  Level New York Center
Sat 08:00:41 PM 40.6222 -75.3617 221° Southwest 383 441 43,000  Level New York Center
Sat 08:01:42 PM 40.5439 -75.4494 220° Southwest 383 441 43,000  Level New York Center
Sat 08:02:42 PM 40.4608 -75.5447 221° Southwest 383 441 43,000  Level New York Center
Sat 08:03:43 PM 40.3800 -75.6344 220° Southwest 383 441 43,000  Level New York Center
Sat 08:04:43 PM 40.2992 -75.7239 220° Southwest 383 441 43,000  Level New York Center
Sat 08:05:41 PM 40.2183 -75.8161 221° Southwest 388 447 43,000  Level New York Center
Sat 08:07:47 PM 40.0400 -76.0089 220° Southwest 384 442 43,000  Level Washington Center
Sat 08:08:45 PM 39.9583 -76.1003 221° Southwest 390 449 43,000  Level Washington Center
Sat 08:09:46 PM 39.8747 -76.1889 219° Southwest 390 449 43,000  Level Washington Center
Sat 08:10:47 PM 39.7950 -76.2775 221° Southwest 390 449 43,000  Level Washington Center
Sat 08:11:45 PM 39.7133 -76.3656 220° Southwest 385 443 43,000  Level Washington Center
Sat 08:12:46 PM 39.6314 -76.4564 220° Southwest 385 443 43,000  Level Washington Center
Sat 08:13:47 PM 39.5517 -76.5336 217° Southwest 385 443 43,000  Level Washington Center
Sat 08:14:45 PM 39.4697 -76.6239 220° Southwest 392 451 43,000  Level Washington Center
Sat 08:15:45 PM 39.3856 -76.7139 220° Southwest 392 451 43,000  Level Washington Center
Sat 08:16:46 PM 39.3033 -76.8039 220° Southwest 392 451 43,000  Level Washington Center
Sat 08:17:45 PM 39.2169 -76.8961 220° Southwest 397 457 43,000  Level Washington Center
Sat 08:18:45 PM 39.1325 -76.9856 219° Southwest 397 457 43,000  Level Washington Center
Sat 08:19:47 PM 39.0503 -77.0750 220° Southwest 402 463 43,000  Level Washington Center
Sat 08:20:46 PM 38.9636 -77.1667 219° Southwest 402 463 43,000  Level Washington Center
Sat 08:21:47 PM 38.8769 -77.2556 219° Southwest 402 463 43,000  Level Washington Center
Sat 08:22:46 PM 38.7922 -77.3442 219° Southwest 402 463 43,000  Level Washington Center
Sat 08:23:46 PM 38.7033 -77.4378 219° Southwest 402 463 43,000  Level Washington Center
Sat 08:24:48 PM 38.6142 -77.5286 219° Southwest 407 468 43,000  Level Washington Center
Sat 08:25:46 PM 38.5294 -77.6219 221° Southwest 407 468 43,000  Level Washington Center
Sat 08:26:45 PM 38.4422 -77.7125 219° Southwest 407 468 43,000  Level Washington Center
Sat 08:27:46 PM 38.3550 -77.8053 220° Southwest 412 474 43,000  Level Washington Center
Sat 08:28:45 PM 38.2617 -77.9028 219° Southwest 412 474 43,000  Level Washington Center
Sat 08:29:58 PM 38.1744 -77.9900 218° Southwest 405 466 43,000  Level Washington Center
Sat 08:30:58 PM 38.0719 -78.0975 220° Southwest 405 466 43,000  Level Washington Center
Sat 08:31:57 PM 37.9847 -78.1789 216° Southwest 405 466 43,000  Level Washington Center
Sat 08:32:57 PM 37.9100 -78.2581 220° Southwest 394 453 43,000  Level Washington Center
Sat 08:33:59 PM 37.8228 -78.3364 215° Southwest 399 459 43,000  Level Washington Center
Sat 08:34:59 PM 37.7331 -78.4225 217° Southwest 404 465 43,000  Level Washington Center
Sat 08:35:57 PM 37.6372 -78.5133 217° Southwest 403 464 43,000  Level Washington Center
Sat 08:36:57 PM 37.5494 -78.5989 218° Southwest 397 457 43,000  Level Washington Center
Sat 08:37:58 PM 37.4600 -78.6764 215° Southwest 402 463 43,000  Level Washington Center
Sat 08:38:59 PM 37.3700 -78.7617 217° Southwest 402 463 43,000  Level Washington Center
Sat 08:39:58 PM 37.2889 -78.8367 216° Southwest 402 463 43,000  Level Washington Center
Sat 08:40:58 PM 37.1989 -78.9189 216° Southwest 402 463 43,000  Level Washington Center
Sat 08:41:59 PM 37.1111 -79.0011 217° Southwest 402 463 43,000  Level Washington Center
Sat 08:42:59 PM 37.0211 -79.0831 216° Southwest 402 463 43,000  Level Washington Center
Sat 08:43:59 PM 36.9311 -79.1672 217° Southwest 402 463 43,000  Level Washington Center
Sat 08:44:58 PM 36.8322 -79.2586 216° Southwest 402 463 43,000  Level Washington Center
Sat 08:45:58 PM 36.7400 -79.3450 217° Southwest 402 463 43,000  Level Washington Center
Sat 08:48:08 PM 36.5403 -79.5219 215° Southwest 405 466 43,000  Level Atlanta Center
Sat 08:49:08 PM 36.4578 -79.5989 217° Southwest 410 472 43,000  Level Atlanta Center
Sat 08:50:08 PM 36.3667 -79.6789 215° Southwest 415 478 43,000  Level Atlanta Center
Sat 08:51:08 PM 36.2758 -79.7661 218° Southwest 415 478 43,000  Level Atlanta Center
Sat 08:52:08 PM 36.1889 -79.8428 215° Southwest 415 478 43,000  Level Atlanta Center
Sat 08:53:08 PM 36.0917 -79.9300 216° Southwest 402 463 43,000  Level Atlanta Center
Sat 08:54:08 PM 35.9894 -79.9942 207° Southwest 402 463 43,000  Level Atlanta Center
Sat 08:55:08 PM 35.8803 -80.0306 195° South 407 468 43,000  Level Atlanta Center
Sat 08:56:08 PM 35.7686 -80.0667 195° South 413 475 43,000  Level Atlanta Center
Sat 08:57:08 PM 35.6594 -80.1025 195° South 418 481 43,000  Level Atlanta Center
Sat 08:58:08 PM 35.5478 -80.1386 195° South 412 474 43,000  Level Atlanta Center
Sat 08:59:08 PM 35.4383 -80.1744 195° South 412 474 43,000  Level Atlanta Center
Sat 09:00:08 PM 35.3289 -80.2100 195° South 412 474 43,000  Level Atlanta Center
Sat 09:01:08 PM 35.2297 -80.2428 195° South 412 474 43,000  Level Atlanta Center
Sat 09:03:09 PM 34.9992 -80.3181 195° South 417 480 43,000  Level Jacksonville Center
Sat 09:04:09 PM 34.8872 -80.3517 194° South 412 474 43,000  Level Jacksonville Center
Sat 09:05:09 PM 34.7919 -80.3875 197° South 417 480 43,000  Level Jacksonville Center
Sat 09:06:09 PM 34.6822 -80.4183 193° South 410 472 43,000 -50 Level Jacksonville Center
Sat 09:07:09 PM 34.5681 -80.4544 195° South 410 472 42,900 -300 Descending Jacksonville Center
Sat 09:08:09 PM 34.4542 -80.4928 196° South 422 486 42,400 -942 Descending Jacksonville Center
Sat 09:09:10 PM 34.3442 -80.5261 194° South 417 480 41,000 -1,700 Descending Jacksonville Center
Sat 09:10:09 PM 34.2364 -80.5592 194° South 412 474 39,000 -2,168 Descending Jacksonville Center
Sat 09:11:09 PM 34.1264 -80.5972 196° South 412 474 36,700 -2,400 Descending Jacksonville Center
Sat 09:12:09 PM 34.0122 -80.6353 195° South 412 474 34,200 -2,500 Descending Jacksonville Center
Sat 09:13:09 PM 33.8981 -80.6683 194° South 417 480 31,700 -2,500 Descending Jacksonville Center
Sat 09:14:09 PM 33.7819 -80.7036 194° South 422 486 29,200 -2,500 Descending Jacksonville Center
Sat 09:15:09 PM 33.6594 -80.7417 194° South 435 501 26,700 -2,450 Descending Jacksonville Center
Sat 09:16:09 PM 33.5411 -80.7794 195° South 440 506 24,300 -1,800 Descending Jacksonville Center
Sat 09:17:09 PM 33.4208 -80.8147 194° South 446 513 23,100 -1,600 Descending Jacksonville Center
Sat 09:18:09 PM 33.3044 -80.8522 195° South 446 513 21,100 -1,983 Descending Jacksonville Center
Sat 09:19:10 PM 33.1944 -80.8869 195° South 428 493 19,100 -1,900 Descending Jacksonville Center
Sat 09:20:09 PM 33.0822 -80.9192 194° South 423 487 17,300 -1,815 Descending Jacksonville Center
Sat 09:21:09 PM 32.9761 -80.9511 194° South 411 473 15,500 -1,800 Descending Jacksonville Center
Sat 09:22:09 PM 32.8744 -80.9806 194° South 396 456 13,700 -1,950 Descending Jacksonville Center
Sat 09:23:09 PM 32.7622 -81.0150 194° South 391 450 11,600 -1,400 Descending Jacksonville Center
Sat 09:24:09 PM 32.6625 -81.0419 193° South 380 437 10,900 -700 Descending Jacksonville Center
Sat 09:25:09 PM 32.5753 -81.0806 200° South 344 396 10,200 -1,000 Descending Jacksonville Center
Sat 09:26:09 PM 32.5006 -81.1142 201° Southwest 311 358 8,900 -1,600 Descending Jacksonville Center
Sat 09:27:09 PM 32.4383 -81.1450 203° Southwest 276 318 7,000 -1,835 Descending Jacksonville Center
Sat 09:28:10 PM 32.3700 -81.1806 204° Southwest 268 308 5,200 -1,300 Descending Jacksonville Center
Sat 09:29:09 PM 32.3056 -81.2114 202° Southwest 243 280 4,400 -1,250 Descending Jacksonville Center
Sat 09:30:10 PM 32.2622 -81.2392 208° Southwest 198 228 2,700 -1,250 Descending Jacksonville Center
Sat 09:31:09 PM 32.2250 -81.2694 215° Southwest 171 197 1,900 -403 Descending Jacksonville Center
Sat 09:32:09 PM 32.1961 -81.2967 219° Southwest 158 182 1,900  Level Jacksonville Center
Sat 09:34:00 PM 32.1276 -81.2021 North  Level Estimated
Sat 09:41:00 PM 32.1276 -81.2021 North  Level Estimated
Sat 09:42:00 PM 32.1276 -81.2021 North  Level Estimated
Sat 09:43:00 PM 32.1276 -81.2021 North  Level Estimated
Sat 09:44:00 PM 32.1276 -81.2021 North  Level Estimated

Login

Don't have an account? Register now (free) for customized features, flight alerts, and more!